Regional Weather Roundup
Issued by NWS Little Rock, AR

Home | Current Version | Previous Version | Graphics & Text | Print | Product List | Glossary On
Versions: 1 2 3 4 5 6 7 8 9 10 11 12 13 14 15 16 17 18 19 20 21 22 23 24 25 26 27
000
ASUS44 KLZK 301305
RWRLZK

WEATHER ROUNDUP FOR ARKANSAS
NATIONAL WEATHER SERVICE LITTLE ROCK AR
800 AM CDT SAT APR 30 2016

NOTE: "FAIR" INDICATES FEW OR NO CLOUDS BELOW 12,000 FEET WITH NO
SIGNIFICANT WEATHER AND/OR OBSTRUCTIONS TO VISIBILITY.

ARZ001-003-010-029-301400-
NORTHWEST ARKANSAS

CITY           SKY/WX    TMP DP  RH WIND       PRES   REMARKS
FAYETTEVILLE   CLOUDY    63  62  97 SW12      29.73R
FORT SMITH     CLOUDY    65  62  90 CALM      29.73R
HARRISON       CLOUDY    63  61  93 S7        29.72S
BENTONVILLE    CLOUDY    63  57  82 S5        29.73R
ROGERS         CLOUDY    63  61  93 SW12      29.73R
SILOAM SPGS    CLOUDY    63  55  77 SW12      29.73R
HIGHFILL       CLOUDY    63  62  97 S10       29.71S
SPRINGDALE     CLOUDY    64  63  94 S12G18    29.74R
$$

ARZ004-005-016-301400-
NORTH CENTRAL ARKANSAS

CITY           SKY/WX    TMP DP  RH WIND       PRES   REMARKS
BATESVILLE     CLOUDY    64  59  82 S10G17    29.75R
FLIPPIN        CLOUDY   N/A N/A N/A CALM      29.70R
MTN HOME       CLOUDY    62  61  96 S3        29.71F
$$

ARZ040-041-301400-
WEST CENTRAL ARKANSAS

CITY           SKY/WX    TMP DP  RH WIND       PRES   REMARKS
MENA           CLOUDY    68  63  83 S3        29.78R
MOUNT IDA      PTSUNNY   64  60  87 VRB3      29.74R
$$

ARZ009-017-025-026-028-301400-
NORTHEAST ARKANSAS

CITY           SKY/WX    TMP DP  RH WIND       PRES   REMARKS
CORNING          N/A     64  64 100 S15       29.78S
JONESBORO      PTSUNNY   67  61  81 S18G26    29.76F
NEWPORT        CLOUDY    66  62  87 S28G33    29.73F
WALNUT RIDGE   CLOUDY    64  61  88 S15       29.75F
BLYTHEVILLE    LGT RAIN  65  32  29 S32G39    29.80F
$$

ARZ022-023-033-042-044-301400-
CENTRAL ARKANSAS

CITY           SKY/WX    TMP DP  RH WIND       PRES   REMARKS
LITTLE ROCK    CLOUDY    65  61  87 SE8       29.75S
N LITTLE ROCK    N/A     64  61  92 S9G23     29.75R
JACKSONVILLE   CLOUDY    65  64  97 S9G17     29.74R
SEARCY         CLOUDY    66  61  82 S12       29.73S
HOT SPRINGS    CLOUDY    64  62  93 CALM      29.76R
RUSSELLVILLE   CLOUDY    64  63  96 CALM      29.74R
$$

ARZ036-301400-
EAST ARKANSAS

CITY           SKY/WX    TMP DP  RH WIND       PRES   REMARKS
WEST MEMPHIS   RAIN      64  63  96 W7        29.87R FOG
$$

ARZ050-053-066-070-073-301400-
SOUTHWEST ARKANSAS

CITY           SKY/WX    TMP DP  RH WIND       PRES   REMARKS
ARKADELPHIA    FAIR      66  66 100 CALM      29.76R
CAMDEN         CLOUDY    66  57  72 S8G24     29.72R
TEXARKANA      CLOUDY    64  63  96 S6        29.72F
EL DORADO      LGT RAIN  66  62  87 S24G37    29.73F
DE QUEEN       CLOUDY    66  65  96 CALM      29.75R
$$

ARZ056-057-069-301400-
SOUTHEAST ARKANSAS

CITY           SKY/WX    TMP DP  RH WIND       PRES   REMARKS
PINE BLUFF     CLOUDY    67  60  78 S35G45    29.73F
STUTTGART      CLOUDY    66  59  77 S8G18     29.78R
MONTICELLO     RAIN      67  64  90 W6        29.85R FOG

$$






USA.gov is the U.S. government's official web portal to all federal, state and local government web resources and services.